Hourly Data Report for February 28, 2004

TORONTO CITY
ONTARIO

43°40'00.000" N
79°24'00.000" W
112.50 m
6158355
71508
XTO

Download Data

Hourly Data (February 2004)
Hourly Data Report for February 28, 2004
TIME
LST
Temp Definition
°C
Dew Point Definition
°C
Rel Hum Definition
%
Precip. Amount Definition
mm

Wind Dir Definition
10's deg

Wind Spd Definition
km/h
Visibility Definition
km
Stn Press Definition
kPa
Hmdx Definition


Wind Chill Definition


Weather Definition


00:00 -0.5 -5.6 68   LegendMM LegendMM LegendMM 101.68     LegendNANA
01:00 -0.9 -5.8 69   LegendMM LegendMM LegendMM 101.70     LegendNANA
02:00 -2.1 -6.2 73   LegendMM LegendMM LegendMM 101.69     LegendNANA
03:00 -2.1 -6.2 73   LegendMM LegendMM LegendMM 101.66     LegendNANA
04:00 -2.3 -6.4 73   LegendMM LegendMM LegendMM 101.64     LegendNANA
05:00 -2.0 -7.2 68   LegendMM LegendMM LegendMM 101.66     LegendNANA
06:00 -2.7 -7.7 68   LegendMM LegendMM LegendMM 101.68     LegendNANA
07:00 -3.1 -7.9 69   LegendMM LegendMM LegendMM 101.70     LegendNANA
08:00 -0.5 -9.7 50   LegendMM LegendMM LegendMM 101.72     LegendNANA
09:00 1.9 -11.0 38   LegendMM LegendMM LegendMM 101.70     LegendNANA
10:00 4.2 -10.0 35   LegendMM LegendMM LegendMM 101.69     LegendNANA
11:00 6.6 -8.2 34   LegendMM LegendMM LegendMM 101.66     LegendNANA
12:00 7.5 -7.8 33   LegendMM LegendMM LegendMM 101.61     LegendNANA
13:00 8.2 -7.6 32   LegendMM LegendMM LegendMM 101.52     LegendNANA
14:00 8.3 -6.0 36   LegendMM LegendMM LegendMM 101.45     LegendNANA
15:00 8.8 -7.9 30   LegendMM LegendMM LegendMM 101.36     LegendNANA
16:00 8.4 -7.0 33   LegendMM LegendMM LegendMM 101.36     LegendNANA
17:00 7.7 -7.6 33   LegendMM LegendMM LegendMM 101.29     LegendNANA
18:00 7.1 -7.8 34   LegendMM LegendMM LegendMM 101.27     LegendNANA
19:00 6.0 -5.4 44   LegendMM LegendMM LegendMM 101.27     LegendNANA
20:00 5.5 -7.4 39   LegendMM LegendMM LegendMM 101.25     LegendNANA
21:00 4.4 -5.5 49   LegendMM LegendMM LegendMM 101.24     LegendNANA
22:00 3.5 -4.8 55   LegendMM LegendMM LegendMM 101.21     LegendNANA
23:00 3.3 -4.5 57   LegendMM LegendMM LegendMM 101.19     LegendNANA

Notes on Data Quality.

Legend

  • E = Estimated
  • M = Missing
  • NA = Not Available*
  • [empty] = Indicates an unobserved value
Date modified: